Zurück zum Katalog

STARLINK-37350

AktivKommunikationSSO
NORAD 68750·PAYLOAD·🇺🇸 United States

Gestartet Apr 15, 2026 von Vandenberg Space Force Base

Loading…

Nächste Überflüge (nächste 24 Stunden)

TLE

AktuellSource: CelesTrak SupGP

Epoche: Sep 15, 2026, 03:49 UTC

1 68750C 26082Y   26258.15951389 -.00011023  00000+0 -34206-3 0  2582
2 68750  97.2853 119.3998 0002311  94.5734 226.7035 15.33454719    19

Verfolge STARLINK-37350 in Echtzeit mit AllMySat

Download on the App Store